| time (UTC) | temp F | wind direction | speed knots | gust knots | rain 1hr in | rain 24hr in | rain mn in | humidity % | barometer mb |
| 20260502152224 | 63 | 102 | 5.2 | 12.2 | 0.00 | 0.29 | 0.00 | 64 | 1023.5 |
| 20260502151724 | 63 | 60 | 4.3 | 11.3 | 0.00 | 0.29 | 0.00 | 63 | 1023.4 |
| 20260502151456 | 63 | 98 | 4.3 | 11.3 | 0.00 | 0.29 | 0.00 | 63 | 1023.5 |
| 20260502150723 | 62 | 37 | 3.5 | 11.3 | 0.00 | 0.29 | 0.00 | 65 | 1023.3 |
| 20260502150224 | 62 | 81 | 3.5 | 10.4 | 0.00 | 0.29 | 0.00 | 65 | 1023.2 |
| 20260502130717 | 55 | 42 | 2.6 | 11.3 | 0.00 | 0.52 | 0.00 | 77 | 1022.1 |
| 20260502130218 | 55 | 70 | 3.5 | 11.3 | 0.00 | 0.68 | 0.00 | 78 | 1022.1 |
| 20260502123716 | 53 | 53 | 0.9 | 5.2 | 0.00 | 0.72 | 0.00 | 81 | 1021.7 |
| 20260502123214 | 52 | 66 | 1.7 | 7.0 | 0.00 | 0.72 | 0.00 | 81 | 1021.7 |
| 20260502122711 | 52 | 37 | 2.6 | 7.8 | 0.00 | 0.72 | 0.00 | 81 | 1021.6 |
| 20260502122442 | 52 | 340 | 2.6 | 7.8 | 0.00 | 0.72 | 0.00 | 82 | 1021.5 |
| 20260502121712 | 51 | 40 | 1.7 | 7.8 | 0.00 | 0.72 | 0.00 | 82 | 1021.4 |
| 20260502121211 | 51 | 52 | 1.7 | 9.6 | 0.00 | 0.72 | 0.00 | 82 | 1021.3 |
| 20260502120212 | 51 | 49 | 2.6 | 9.6 | 0.00 | 0.72 | 0.00 | 83 | 1021.1 |
| 20260502115211 | 51 | 49 | 1.7 | 9.6 | 0.00 | 0.72 | 0.00 | 83 | 1020.9 |
| 20260502114705 | 51 | 63 | 1.7 | 7.8 | 0.00 | 0.72 | 0.00 | 84 | 1020.9 |
| 20260502114159 | 51 | 5 | 1.7 | 7.0 | 0.00 | 0.72 | 0.00 | 84 | 1020.9 |
| 20260502113652 | 51 | 48 | 1.7 | 7.0 | 0.00 | 0.72 | 0.00 | 84 | 1020.7 |
| 20260502113147 | 51 | 17 | 2.6 | 7.0 | 0.00 | 0.72 | 0.00 | 84 | 1020.7 |
| 20260502112641 | 51 | 0 | 1.7 | 7.0 | 0.00 | 0.72 | 0.00 | 84 | 1020.6 |
| 20260502112135 | 51 | 34 | 1.7 | 7.0 | 0.00 | 0.72 | 0.00 | 84 | 1020.7 |
| 20260502111629 | 51 | 355 | 0.9 | 7.0 | 0.00 | 0.72 | 0.00 | 84 | 1020.7 |
| 20260502111353 | 51 | 21 | 0.9 | 4.3 | 0.00 | 0.73 | 0.00 | 84 | 1020.6 |
| 20260502110617 | 51 | 355 | 0.9 | 5.2 | 0.00 | 0.73 | 0.00 | 84 | 1020.6 |
| 20260502110111 | 51 | 314 | 1.7 | 7.8 | 0.00 | 0.74 | 0.00 | 84 | 1020.6 |
| 20260502105604 | 51 | 24 | 1.7 | 7.8 | 0.00 | 0.75 | 0.00 | 84 | 1020.6 |
| 20260502105059 | 51 | 66 | 0.9 | 7.8 | 0.00 | 0.75 | 0.00 | 84 | 1020.5 |
| 20260502104553 | 51 | 300 | 1.7 | 6.1 | 0.00 | 0.76 | 0.00 | 84 | 1020.5 |
| 20260502104047 | 51 | 84 | 0.9 | 6.1 | 0.00 | 0.77 | 0.00 | 84 | 1020.6 |
| 20260502103813 | 51 | 46 | 0.9 | 8.7 | 0.00 | 0.77 | 0.00 | 84 | 1020.4 |
| 20260502103035 | 51 | 49 | 1.7 | 8.7 | 0.00 | 0.78 | 0.00 | 84 | 1020.4 |
| 20260502102529 | 51 | 293 | 1.7 | 7.8 | 0.00 | 0.79 | 0.00 | 84 | 1020.4 |
| 20260502102022 | 51 | 297 | 1.7 | 8.7 | 0.00 | 0.81 | 0.00 | 84 | 1020.4 |
| 20260502101517 | 51 | 5 | 1.7 | 8.7 | 0.00 | 0.85 | 0.00 | 85 | 1020.4 |
| 20260502101011 | 51 | 83 | 1.7 | 8.7 | 0.00 | 0.93 | 0.00 | 85 | 1020.3 |
| 20260502100504 | 51 | 30 | 1.7 | 7.8 | 0.00 | 0.97 | 0.00 | 85 | 1020.3 |
| 20260502091405 | 51 | 69 | 0.0 | 4.3 | 0.00 | 1.03 | 0.00 | 86 | 1019.3 |
| 20260502090859 | 51 | 67 | 0.0 | 2.6 | 0.00 | 1.03 | 0.00 | 86 | 1019.3 |
| 20260502090353 | 51 | 67 | 0.0 | 2.6 | 0.00 | 1.06 | 0.00 | 86 | 1019.2 |
| 20260502070811 | 52 | 53 | 1.7 | 6.1 | 0.00 | 1.50 | 0.00 | 86 | 1018.4 |
| 20260502070311 | 52 | 26 | 1.7 | 7.8 | 0.00 | 1.50 | 0.00 | 86 | 1018.5 |
| 20260502065810 | 52 | 51 | 1.7 | 7.8 | 0.00 | 1.51 | 0.00 | 86 | 1018.5 |
| 20260502065311 | 52 | 61 | 2.6 | 8.7 | 0.00 | 1.51 | 0.00 | 86 | 1018.6 |
| 20260502064811 | 52 | 51 | 3.5 | 9.6 | 0.00 | 1.51 | 0.00 | 86 | 1018.6 |
| 20260502064311 | 52 | 53 | 2.6 | 9.6 | 0.00 | 1.51 | 0.00 | 86 | 1018.6 |
| 20260502063806 | 52 | 34 | 2.6 | 8.7 | 0.00 | 1.51 | 0.00 | 86 | 1018.7 |
| 20260502063306 | 52 | 23 | 2.6 | 7.8 | 0.00 | 1.52 | 0.00 | 86 | 1018.8 |
| 20260502063037 | 52 | 67 | 1.7 | 7.8 | 0.00 | 1.52 | 0.00 | 86 | 1018.7 |
| 20260502062307 | 52 | 31 | 2.6 | 10.4 | 0.00 | 1.54 | 0.00 | 86 | 1018.6 |
| 20260502061806 | 52 | 46 | 2.6 | 10.4 | 0.00 | 1.63 | 0.00 | 86 | 1018.5 |
| 20260502061307 | 52 | 80 | 2.6 | 8.7 | 0.00 | 1.66 | 0.00 | 86 | 1018.5 |
| 20260502060807 | 52 | 63 | 2.6 | 7.8 | 0.00 | 1.66 | 0.00 | 86 | 1018.5 |
| 20260502060307 | 52 | 84 | 1.7 | 7.8 | 0.00 | 1.66 | 0.00 | 85 | 1018.6 |
| 20260502055806 | 52 | 42 | 1.7 | 8.7 | 0.00 | 1.66 | 0.00 | 85 | 1018.7 |
| 20260502055306 | 53 | 34 | 1.7 | 8.7 | 0.00 | 1.66 | 0.00 | 85 | 1018.8 |
| 20260502054809 | 53 | 37 | 2.6 | 7.0 | 0.00 | 1.66 | 0.00 | 85 | 1018.8 |
| 20260502054307 | 53 | 65 | 2.6 | 8.7 | 0.00 | 1.66 | 0.00 | 85 | 1018.8 |
| 20260502054037 | 53 | 38 | 2.6 | 9.6 | 0.00 | 1.66 | 0.00 | 85 | 1018.7 |
| 20260502053306 | 53 | 58 | 3.5 | 10.4 | 0.00 | 1.66 | 0.00 | 85 | 1018.7 |
| 20260502053029 | 53 | 48 | 3.5 | 10.4 | 0.00 | 1.67 | 0.00 | 85 | 1018.6 |
| 20260502052252 | 53 | 355 | 4.3 | 10.4 | 0.00 | 1.71 | 0.00 | 85 | 1018.6 |
| 20260502051746 | 53 | 348 | 4.3 | 10.4 | 0.00 | 1.75 | 0.00 | 85 | 1018.6 |
| 20260502050735 | 53 | 33 | 3.5 | 12.2 | 0.00 | 1.78 | 0.00 | 85 | 1017.9 |
| 20260502050228 | 53 | 34 | 4.3 | 12.2 | 0.00 | 1.78 | 0.00 | 85 | 1018.2 |
| 20260502045724 | 53 | 41 | 3.5 | 11.3 | 0.00 | 1.78 | 1.78 | 85 | 1018.4 |
| 20260502045218 | 53 | 53 | 2.6 | 8.7 | 0.00 | 1.78 | 1.78 | 85 | 1018.6 |
| 20260502044712 | 53 | 78 | 3.5 | 10.4 | 0.00 | 1.78 | 1.78 | 85 | 1018.7 |
| 20260502044208 | 53 | 70 | 4.3 | 10.4 | 0.00 | 1.78 | 1.78 | 85 | 1018.8 |
| 20260502043708 | 53 | 51 | 3.5 | 11.3 | 0.00 | 1.78 | 1.78 | 85 | 1018.7 |
| 20260502043206 | 53 | 60 | 3.5 | 11.3 | 0.00 | 1.78 | 1.78 | 85 | 1018.6 |
| 20260502042705 | 53 | 55 | 3.5 | 10.4 | 0.00 | 1.78 | 1.78 | 84 | 1018.5 |
| 20260502042434 | 53 | 36 | 3.5 | 10.4 | 0.00 | 1.78 | 1.78 | 84 | 1018.5 |
| 20260502041704 | 53 | 34 | 4.3 | 14.8 | 0.00 | 1.78 | 1.78 | 84 | 1018.6 |
| 20260502041204 | 54 | 42 | 4.3 | 14.8 | 0.00 | 1.78 | 1.78 | 84 | 1018.6 |
| 20260502040936 | 54 | 45 | 4.3 | 12.2 | 0.00 | 1.78 | 1.78 | 84 | 1018.8 |
| 20260502040204 | 54 | 86 | 5.2 | 13.9 | 0.00 | 1.78 | 1.78 | 84 | 1018.7 |
| 20260502035704 | 54 | 40 | 5.2 | 13.9 | 0.00 | 1.78 | 1.78 | 85 | 1018.6 |
| 20260502035205 | 54 | 38 | 5.2 | 13.0 | 0.00 | 1.78 | 1.78 | 85 | 1018.7 |
| 20260502034704 | 54 | 65 | 5.2 | 13.9 | 0.00 | 1.78 | 1.78 | 85 | 1018.5 |
| 20260502034204 | 54 | 59 | 5.2 | 13.9 | 0.00 | 1.78 | 1.78 | 85 | 1018.5 |
| 20260502033934 | 54 | 60 | 5.2 | 13.9 | 0.00 | 1.78 | 1.78 | 85 | 1018.5 |
| 20260502033435 | 54 | 70 | 4.3 | 12.2 | 0.00 | 1.78 | 1.78 | 85 | 1018.4 |
| 20260502032704 | 54 | 50 | 4.3 | 12.2 | 0.00 | 1.78 | 1.78 | 85 | 1018.4 |
| 20260502032204 | 54 | 55 | 4.3 | 12.2 | 0.00 | 1.78 | 1.78 | 85 | 1018.4 |
| 20260502031934 | 54 | 100 | 4.3 | 13.9 | 0.00 | 1.78 | 1.78 | 85 | 1018.3 |
| 20260502031203 | 54 | 76 | 5.2 | 13.9 | 0.00 | 1.78 | 1.78 | 85 | 1017.9 |
| 20260502030703 | 54 | 355 | 5.2 | 13.9 | 0.00 | 1.78 | 1.78 | 85 | 1017.8 |
| 20260502030201 | 54 | 25 | 5.2 | 14.8 | 0.00 | 1.78 | 1.78 | 85 | 1017.7 |
| 20260502025702 | 54 | 49 | 5.2 | 14.8 | 0.00 | 1.78 | 1.78 | 85 | 1017.6 |
| 20260502025202 | 54 | 57 | 5.2 | 13.9 | 0.00 | 1.78 | 1.78 | 85 | 1017.5 |
| 20260502024702 | 54 | 41 | 4.3 | 13.9 | 0.00 | 1.78 | 1.78 | 85 | 1017.4 |
| 20260502024201 | 53 | 5 | 4.3 | 14.8 | 0.00 | 1.78 | 1.78 | 85 | 1017.4 |
| 20260502023657 | 53 | 74 | 4.3 | 15.6 | 0.00 | 1.78 | 1.78 | 85 | 1017.3 |
| 20260502023156 | 54 | 52 | 5.2 | 15.6 | 0.00 | 1.78 | 1.78 | 85 | 1017.3 |
| 20260502022656 | 54 | 65 | 5.2 | 13.9 | 0.00 | 1.78 | 1.78 | 85 | 1017.3 |
| 20260502022155 | 54 | 41 | 6.1 | 15.6 | 0.00 | 1.78 | 1.78 | 84 | 1017.0 |
| 20260502021656 | 54 | 80 | 6.1 | 15.6 | 0.00 | 1.78 | 1.78 | 84 | 1017.1 |
| 20260502021156 | 54 | 61 | 5.2 | 13.9 | 0.00 | 1.78 | 1.78 | 85 | 1017.0 |
| 20260502020656 | 54 | 82 | 4.3 | 13.0 | 0.00 | 1.78 | 1.78 | 85 | 1016.9 |
| 20260502020156 | 54 | 13 | 5.2 | 13.0 | 0.00 | 1.78 | 1.78 | 85 | 1016.7 |
| 20260502015656 | 55 | 51 | 6.1 | 15.6 | 0.00 | 1.78 | 1.78 | 85 | 1016.6 |
| 20260502015155 | 55 | 39 | 6.1 | 16.5 | 0.00 | 1.78 | 1.78 | 86 | 1016.5 |
| 20260502014654 | 55 | 47 | 5.2 | 16.5 | 0.00 | 1.78 | 1.78 | 87 | 1016.3 |
| 20260502014149 | 55 | 46 | 5.2 | 14.8 | 0.00 | 1.78 | 1.78 | 87 | 1016.2 |
| 20260502013641 | 55 | 75 | 5.2 | 14.8 | 0.00 | 1.78 | 1.78 | 87 | 1016.2 |
| 20260502013407 | 55 | 63 | 5.2 | 13.9 | 0.00 | 1.78 | 1.78 | 87 | 1016.2 |
| 20260502012629 | 55 | 47 | 5.2 | 13.9 | 0.00 | 1.78 | 1.78 | 87 | 1016.1 |
| 20260502012353 | 56 | 49 | 7.0 | 17.4 | 0.00 | 1.78 | 1.78 | 87 | 1016.0 |
| 20260502011617 | 56 | 355 | 6.1 | 17.4 | 0.00 | 1.78 | 1.78 | 87 | 1016.1 |
| 20260502011111 | 56 | 80 | 6.1 | 15.6 | 0.00 | 1.78 | 1.78 | 87 | 1015.9 |
| 20260502010605 | 56 | 63 | 6.1 | 15.6 | 0.00 | 1.78 | 1.78 | 87 | 1015.8 |
| 20260502010058 | 56 | 51 | 5.2 | 13.0 | 0.00 | 1.78 | 1.78 | 87 | 1015.6 |
| 20260502005553 | 56 | 36 | 4.3 | 12.2 | 0.00 | 1.78 | 1.78 | 88 | 1015.4 |
| 20260502005047 | 57 | 77 | 3.5 | 11.3 | 0.00 | 1.78 | 1.78 | 88 | 1015.3 |
| 20260502004541 | 57 | 57 | 3.5 | 14.8 | 0.00 | 1.78 | 1.78 | 88 | 1015.3 |
| 20260502004035 | 57 | 67 | 5.2 | 14.8 | 0.00 | 1.78 | 1.78 | 88 | 1015.2 |
| 20260502003529 | 57 | 26 | 4.3 | 13.9 | 0.00 | 1.78 | 1.78 | 88 | 1014.9 |
| 20260502003023 | 57 | 81 | 3.5 | 13.9 | 0.00 | 1.78 | 1.78 | 88 | 1014.9 |
| 20260502002517 | 57 | 53 | 4.3 | 13.9 | 0.00 | 1.78 | 1.78 | 88 | 1014.9 |
| 20260502002011 | 57 | 55 | 4.3 | 13.9 | 0.00 | 1.78 | 1.78 | 88 | 1014.8 |
| 20260502000959 | 58 | 22 | 5.2 | 15.6 | 0.00 | 1.78 | 1.78 | 88 | 1014.5 |
| 20260502000724 | 58 | 111 | 4.3 | 13.9 | 0.00 | 1.78 | 1.78 | 88 | 1014.5 |
| 20260501235947 | 58 | 55 | 5.2 | 13.9 | 0.00 | 1.78 | 1.78 | 88 | 1014.5 |
| 20260501235441 | 58 | 53 | 4.3 | 14.8 | 0.00 | 1.78 | 1.78 | 88 | 1014.3 |
| 20260501234935 | 58 | 5 | 4.3 | 16.5 | 0.00 | 1.78 | 1.78 | 88 | 1014.2 |
| 20260501234428 | 58 | 65 | 6.1 | 16.5 | 0.00 | 1.78 | 1.78 | 88 | 1014.0 |
| 20260501233417 | 58 | 0 | 5.2 | 15.6 | 0.00 | 1.78 | 1.78 | 89 | 1013.9 |
| 20260501232911 | 58 | 41 | 5.2 | 15.6 | 0.00 | 1.78 | 1.78 | 89 | 1013.8 |
| 20260501232404 | 58 | 11 | 5.2 | 14.8 | 0.00 | 1.78 | 1.78 | 89 | 1013.7 |
| 20260501231859 | 58 | 34 | 5.2 | 14.8 | 0.00 | 1.78 | 1.78 | 89 | 1013.6 |
| 20260501231353 | 59 | 57 | 5.2 | 17.4 | 0.00 | 1.78 | 1.78 | 90 | 1013.4 |
| 20260501230847 | 59 | 61 | 5.2 | 17.4 | 0.00 | 1.78 | 1.78 | 89 | 1013.5 |
| 20260501230611 | 59 | 59 | 3.5 | 9.6 | 0.00 | 1.78 | 1.78 | 91 | 1013.4 |
| 20260501225835 | 59 | 72 | 4.3 | 10.4 | 0.00 | 1.78 | 1.78 | 91 | 1013.1 |
| 20260501225329 | 58 | 69 | 4.3 | 11.3 | 0.00 | 1.78 | 1.78 | 91 | 1013.0 |
| 20260501224823 | 58 | 42 | 4.3 | 11.3 | 0.00 | 1.78 | 1.78 | 92 | 1013.1 |
| 20260501224323 | 58 | 61 | 4.3 | 12.2 | 0.00 | 1.78 | 1.78 | 92 | 1013.0 |
| 20260501223823 | 58 | 58 | 3.5 | 15.6 | 0.00 | 1.78 | 1.78 | 92 | 1013.0 |
| 20260501223325 | 58 | 76 | 2.6 | 15.6 | 0.00 | 1.78 | 1.78 | 92 | 1013.1 |
| 20260501222823 | 58 | 77 | 2.6 | 8.7 | 0.00 | 1.78 | 1.78 | 92 | 1013.2 |
| 20260501222323 | 58 | 53 | 2.6 | 10.4 | 0.00 | 1.78 | 1.78 | 92 | 1013.2 |
| 20260501221823 | 58 | 91 | 1.7 | 10.4 | 0.01 | 1.78 | 1.78 | 92 | 1013.1 |
| 20260501221553 | 59 | 56 | 2.6 | 7.0 | 0.01 | 1.78 | 1.78 | 92 | 1013.4 |
| 20260501220823 | 58 | 355 | 2.6 | 12.2 | 0.01 | 1.78 | 1.78 | 92 | 1013.4 |
| 20260501220323 | 58 | 38 | 1.7 | 12.2 | 0.02 | 1.78 | 1.78 | 92 | 1013.5 |
| 20260501215823 | 59 | 292 | 1.7 | 8.7 | 0.04 | 1.78 | 1.78 | 92 | 1013.5 |
| 20260501215323 | 59 | 74 | 2.6 | 8.7 | 0.06 | 1.78 | 1.78 | 92 | 1013.6 |
| 20260501215054 | 59 | 52 | 2.6 | 8.7 | 0.06 | 1.78 | 1.78 | 93 | 1013.3 |
| 20260501214323 | 60 | 67 | 1.7 | 7.8 | 0.06 | 1.78 | 1.78 | 93 | 1013.0 |
| 20260501213822 | 59 | 60 | 1.7 | 7.8 | 0.06 | 1.78 | 1.78 | 93 | 1013.1 |
| 20260501213325 | 59 | 53 | 1.7 | 8.7 | 0.06 | 1.78 | 1.78 | 93 | 1013.1 |
| 20260501212826 | 59 | 86 | 1.7 | 12.2 | 0.06 | 1.78 | 1.78 | 93 | 1013.1 |
| 20260501212317 | 59 | 15 | 2.6 | 12.2 | 0.06 | 1.78 | 1.78 | 93 | 1013.1 |
| 20260501211817 | 59 | 355 | 3.5 | 10.4 | 0.05 | 1.77 | 1.77 | 93 | 1013.0 |
| 20260501210817 | 59 | 34 | 3.5 | 13.0 | 0.05 | 1.77 | 1.77 | 92 | 1012.7 |
| 20260501210315 | 59 | 27 | 2.6 | 13.0 | 0.05 | 1.76 | 1.76 | 92 | 1012.6 |
| 20260501205814 | 60 | 50 | 2.6 | 11.3 | 0.03 | 1.74 | 1.75 | 92 | 1012.7 |
| 20260501205314 | 60 | 44 | 2.6 | 9.6 | 0.02 | 1.72 | 1.72 | 92 | 1012.9 |
| 20260501204815 | 60 | 59 | 1.7 | 9.6 | 0.03 | 1.72 | 1.72 | 92 | 1012.9 |
| 20260501204315 | 61 | 44 | 1.7 | 7.0 | 0.03 | 1.72 | 1.72 | 93 | 1013.1 |
| 20260501203815 | 61 | 0 | 1.7 | 7.0 | 0.03 | 1.72 | 1.72 | 92 | 1013.3 |
| 20260501202815 | 61 | 176 | 0.9 | 7.0 | 0.03 | 1.72 | 1.72 | 92 | 1013.1 |
| 20260501202315 | 61 | 38 | 1.7 | 10.4 | 0.03 | 1.72 | 1.72 | 92 | 1013.0 |
| 20260501202045 | 61 | 5 | 1.7 | 10.4 | 0.03 | 1.72 | 1.72 | 92 | 1012.9 |
| 20260501201545 | 61 | 306 | 1.7 | 8.7 | 0.03 | 1.72 | 1.72 | 92 | 1013.3 |
| 20260501200815 | 61 | 51 | 1.7 | 8.7 | 0.03 | 1.72 | 1.72 | 92 | 1013.1 |
| 20260501195815 | 62 | 28 | 2.6 | 9.6 | 0.02 | 1.71 | 1.71 | 92 | 1012.8 |
| 20260501195314 | 62 | 27 | 1.7 | 9.6 | 0.01 | 1.70 | 1.70 | 92 | 1012.6 |
| 20260501194808 | 62 | 309 | 1.7 | 7.8 | 0.00 | 1.69 | 1.69 | 92 | 1013.0 |
| 20260501194302 | 62 | 36 | 2.6 | 8.7 | 0.00 | 1.69 | 1.69 | 91 | 1012.4 |
| 20260501193755 | 62 | 38 | 3.5 | 11.3 | 0.00 | 1.69 | 1.69 | 91 | 1012.1 |
| 20260501193254 | 62 | 16 | 3.5 | 11.3 | 0.00 | 1.69 | 1.69 | 91 | 1011.7 |
| 20260501192254 | 62 | 69 | 4.3 | 13.0 | 0.00 | 1.69 | 1.69 | 92 | 1011.2 |
| 20260501192025 | 62 | 76 | 4.3 | 12.2 | 0.01 | 1.69 | 1.69 | 92 | 1011.1 |
| 20260501191526 | 62 | 63 | 4.3 | 12.2 | 0.02 | 1.69 | 1.69 | 93 | 1011.2 |
| 20260501190755 | 62 | 72 | 3.5 | 9.6 | 0.03 | 1.69 | 1.69 | 93 | 1011.3 |
| 20260501190256 | 62 | 52 | 3.5 | 11.3 | 0.03 | 1.69 | 1.69 | 94 | 1011.5 |
| 20260501185753 | 62 | 85 | 4.3 | 12.2 | 0.03 | 1.69 | 1.69 | 93 | 1011.7 |
| 20260501185250 | 62 | 129 | 4.3 | 13.0 | 0.03 | 1.69 | 1.69 | 94 | 1011.6 |
| 20260501184748 | 62 | 79 | 4.3 | 13.0 | 0.03 | 1.69 | 1.69 | 94 | 1011.5 |
| 20260501184519 | 62 | 44 | 5.2 | 14.8 | 0.03 | 1.69 | 1.69 | 94 | 1011.3 |
| 20260501183748 | 62 | 69 | 4.3 | 14.8 | 0.03 | 1.69 | 1.69 | 94 | 1011.8 |
| 20260501183248 | 63 | 51 | 2.6 | 12.2 | 0.03 | 1.69 | 1.69 | 95 | 1012.1 |
| 20260501182748 | 62 | 40 | 2.6 | 11.3 | 0.03 | 1.69 | 1.69 | 95 | 1012.5 |
| 20260501182248 | 62 | 41 | 3.5 | 11.3 | 0.03 | 1.69 | 1.69 | 95 | 1012.2 |
| 20260501181748 | 60 | 69 | 1.7 | 10.4 | 0.02 | 1.68 | 1.68 | 94 | 1012.4 |
| 20260501181247 | 60 | 30 | 1.7 | 7.0 | 0.01 | 1.67 | 1.67 | 94 | 1013.6 |
| 20260501180742 | 60 | 349 | 2.6 | 6.1 | 0.01 | 1.66 | 1.66 | 94 | 1013.8 |
| 20260501180236 | 60 | 11 | 2.6 | 8.7 | 0.02 | 1.66 | 1.66 | 94 | 1013.4 |
| 20260501175729 | 60 | 93 | 2.6 | 8.7 | 0.03 | 1.66 | 1.66 | 94 | 1013.2 |
| 20260501175223 | 60 | 114 | 2.6 | 8.7 | 0.07 | 1.66 | 1.66 | 94 | 1012.8 |
| 20260501174718 | 60 | 52 | 2.6 | 11.3 | 0.12 | 1.66 | 1.66 | 94 | 1012.6 |
| 20260501174212 | 60 | 67 | 2.6 | 11.3 | 0.15 | 1.66 | 1.66 | 94 | 1013.0 |
| 20260501173706 | 61 | 11 | 2.6 | 9.6 | 0.16 | 1.66 | 1.66 | 94 | 1013.0 |
| 20260501173200 | 61 | 77 | 2.6 | 9.6 | 0.17 | 1.66 | 1.66 | 94 | 1013.1 |
| 20260501172654 | 61 | 57 | 2.6 | 10.4 | 0.17 | 1.66 | 1.66 | 94 | 1013.4 |
| 20260501172150 | 61 | 62 | 2.6 | 10.4 | 0.17 | 1.66 | 1.66 | 94 | 1013.2 |
| 20260501171643 | 61 | 65 | 2.6 | 8.7 | 0.17 | 1.66 | 1.66 | 95 | 1012.9 |
| 20260501171136 | 61 | 56 | 2.6 | 8.7 | 0.17 | 1.66 | 1.66 | 94 | 1013.3 |
| 20260501170124 | 60 | 0 | 1.7 | 9.6 | 0.15 | 1.64 | 1.64 | 94 | 1013.4 |
| 20260501165618 | 60 | 86 | 2.6 | 9.6 | 0.14 | 1.63 | 1.63 | 94 | 1013.3 |
| 20260501165112 | 60 | 14 | 2.6 | 9.6 | 0.10 | 1.59 | 1.59 | 94 | 1013.2 |
| 20260501164606 | 60 | 32 | 3.5 | 9.6 | 0.04 | 1.53 | 1.54 | 94 | 1013.0 |
| 20260501164100 | 61 | 5 | 3.5 | 8.7 | 0.02 | 1.51 | 1.51 | 94 | 1012.4 |
| 20260501163825 | 61 | 48 | 2.6 | 10.4 | 0.00 | 1.49 | 1.49 | 94 | 1012.1 |
| 20260501163048 | 61 | 10 | 3.5 | 10.4 | 0.00 | 1.49 | 1.49 | 94 | 1012.1 |
| 20260501162813 | 61 | 42 | 4.3 | 12.2 | 0.00 | 1.49 | 1.49 | 94 | 1011.9 |
| 20260501162035 | 61 | 76 | 4.3 | 12.2 | 0.00 | 1.49 | 1.49 | 93 | 1011.2 |
| 20260501161802 | 62 | 18 | 4.3 | 13.0 | 0.00 | 1.49 | 1.49 | 94 | 1011.5 |
| 20260501161255 | 62 | 44 | 4.3 | 13.0 | 0.00 | 1.49 | 1.49 | 94 | 1011.5 |
| 20260501160518 | 62 | 64 | 3.5 | 9.6 | 0.00 | 1.49 | 1.49 | 95 | 1011.6 |
| 20260501155506 | 61 | 70 | 4.3 | 10.4 | 0.02 | 1.49 | 1.49 | 95 | 1011.9 |